This is the latest recevied weather packets stored in our database for station/object AA0PB. If no packets are shown the sender has not sent any weather packets the latest 10 day(s).
| Time | Temp. | Humidity | Pressure | Rain* | Wind** | Luminosity | Snow |
|---|---|---|---|---|---|---|---|
| 1777109853 | 7.78° C | 60% | 1013.5 hPa | 0 mm | - | 0 W/m² | - |
| 1777109550 | 7.78° C | 60% | 1013.5 hPa | 0 mm | - | 0 W/m² | - |
| 1777109246 | 7.78° C | 62% | 1013.8 hPa | 0 mm | - | 0 W/m² | - |
| 1777108940 | 7.78° C | 62% | 1013.9 hPa | 0 mm | - | 0 W/m² | - |
| 1777108637 | 7.78° C | 61% | 1014 hPa | 0 mm | - | 0 W/m² | - |
| 1777108029 | 8.33° C | 58% | 1013.8 hPa | 0 mm | - | 0 W/m² | - |
| 1777107724 | 8.89° C | 57% | 1013.9 hPa | 0 mm | - | 0 W/m² | - |
| 1777107419 | 8.89° C | 55% | 1013.9 hPa | 0 mm | - | 0 W/m² | - |
| 1777107116 | 8.89° C | 55% | 1013.9 hPa | 0 mm | - | 0 W/m² | - |
| 1777106811 | 8.33° C | 56% | 1013.8 hPa | 0 mm | - | 0 W/m² | - |
| 1777106508 | 8.33° C | 58% | 1013.9 hPa | 0 mm | - | 0 W/m² | - |
| 1777106204 | 8.33° C | 58% | 1014 hPa | 0 mm | - | 0 W/m² | - |
| 1777105900 | 8.33° C | 58% | 1014 hPa | 0 mm | - | 0 W/m² | - |
| 1777105597 | 8.33° C | 57% | 1013.9 hPa | 0 mm | - | 0 W/m² | - |
| 1777105292 | 8.33° C | 56% | 1014 hPa | 0 mm | - | 0 W/m² | - |
| 1777104989 | 8.33° C | 57% | 1014 hPa | 0 mm | - | 0 W/m² | - |
| 1777104686 | 8.33° C | 58% | 1013.9 hPa | 0 mm | - | 0 W/m² | - |
| 1777104382 | 8.33° C | 57% | 1013.9 hPa | 0 mm | - | 0 W/m² | - |
| 1777104078 | 8.33° C | 56% | 1014 hPa | 0 mm | - | 0 W/m² | - |
| 1777103775 | 8.89° C | 57% | 1014 hPa | 0 mm | - | 0 W/m² | - |
| 1777103472 | 8.89° C | 56% | 1013.8 hPa | 0 mm | - | 0 W/m² | - |
| 1777103169 | 8.89° C | 55% | 1014 hPa | 0 mm | - | 0 W/m² | - |
| 1777102866 | 8.89° C | 55% | 1013.8 hPa | 0 mm | - | 0 W/m² | - |
| 1777102562 | 8.89° C | 55% | 1013.7 hPa | 0 mm | - | 0 W/m² | - |
| 1777102258 | 9.44° C | 54% | 1014.1 hPa | 0 mm | - | 0 W/m² | - |
* Rain latest hour (hover to see other rain measurements)
** Current wind speed in m/s (hover to see current wind gust speed)